Year,Month,Day,Hour,Minute,Value (Times are PST for temperature in C)
2013,05,09,00,00,11.10
2013,05,09,00,01,11.10
2013,05,09,00,02,11.00
2013,05,09,00,03,11.00
2013,05,09,00,04,11.00
2013,05,09,00,05,11.00
2013,05,09,00,06,11.00
2013,05,09,00,07,10.90
2013,05,09,00,08,11.00
2013,05,09,00,09,10.90
2013,05,09,00,10,10.90
2013,05,09,00,11,10.90
2013,05,09,00,12,10.90
2013,05,09,00,13,11.00
2013,05,09,00,14,10.90
2013,05,09,00,15,10.90
2013,05,09,00,16,10.90
2013,05,09,00,17,10.90
2013,05,09,00,18,10.90
2013,05,09,00,19,10.90
2013,05,09,00,20,10.90
2013,05,09,00,21,10.90
2013,05,09,00,22,10.90
2013,05,09,00,23,10.90
2013,05,09,00,24,10.80
2013,05,09,00,25,10.80
2013,05,09,00,26,10.80
2013,05,09,00,27,10.80
2013,05,09,00,28,10.80
2013,05,09,00,29,10.80
2013,05,09,00,30,10.80
2013,05,09,00,31,10.80
2013,05,09,00,32,10.80
2013,05,09,00,33,10.80
2013,05,09,00,34,10.80
2013,05,09,00,35,10.80
2013,05,09,00,36,10.80
2013,05,09,00,37,10.80
2013,05,09,00,38,10.80
2013,05,09,00,39,10.80
2013,05,09,00,40,10.80
2013,05,09,00,41,10.80
2013,05,09,00,42,10.80
2013,05,09,00,43,10.80
2013,05,09,00,44,10.80
2013,05,09,00,45,10.80
2013,05,09,00,46,10.80
2013,05,09,00,47,10.70
2013,05,09,00,48,10.70
2013,05,09,00,49,10.70
2013,05,09,00,50,10.70
2013,05,09,00,51,10.70
2013,05,09,00,52,10.70
2013,05,09,00,53,10.70
2013,05,09,00,54,10.70
2013,05,09,00,55,10.60
2013,05,09,00,56,10.60
2013,05,09,00,57,10.60
2013,05,09,00,58,10.60
2013,05,09,00,59,10.50
2013,05,09,01,00,10.50
2013,05,09,01,01,10.50
2013,05,09,01,02,10.40
2013,05,09,01,03,10.40
2013,05,09,01,04,10.40
2013,05,09,01,05,10.40
2013,05,09,01,06,10.40
2013,05,09,01,07,10.30
2013,05,09,01,08,10.30
2013,05,09,01,09,10.30
2013,05,09,01,10,10.30
2013,05,09,01,11,10.30
2013,05,09,01,12,10.30
2013,05,09,01,13,10.30
2013,05,09,01,14,10.30
2013,05,09,01,15,10.30
2013,05,09,01,16,10.30
2013,05,09,01,17,10.30
2013,05,09,01,18,10.30
2013,05,09,01,19,10.30
2013,05,09,01,20,10.30
2013,05,09,01,21,10.30
2013,05,09,01,22,10.30
2013,05,09,01,23,10.30
2013,05,09,01,24,10.30
2013,05,09,01,25,10.30
2013,05,09,01,26,10.30
2013,05,09,01,27,10.30
2013,05,09,01,28,10.30
2013,05,09,01,29,10.30
2013,05,09,01,30,10.30
2013,05,09,01,31,10.30
2013,05,09,01,32,10.30
2013,05,09,01,33,10.30
2013,05,09,01,34,10.20
2013,05,09,01,35,10.20
2013,05,09,01,36,10.20
2013,05,09,01,37,10.20
2013,05,09,01,38,10.20
2013,05,09,01,39,10.20
2013,05,09,01,40,10.20
2013,05,09,01,41,10.20
2013,05,09,01,42,10.20
2013,05,09,01,43,10.20
2013,05,09,01,44,10.20
2013,05,09,01,45,10.20
2013,05,09,01,46,10.20
2013,05,09,01,47,10.20
2013,05,09,01,48,10.20
2013,05,09,01,49,10.20
2013,05,09,01,50,10.20
2013,05,09,01,51,10.20
2013,05,09,01,52,10.20
2013,05,09,01,53,10.20
2013,05,09,01,54,10.20
2013,05,09,01,55,10.20
2013,05,09,01,56,10.20
2013,05,09,01,57,10.20
2013,05,09,01,58,10.20
2013,05,09,01,59,10.20
2013,05,09,02,00,10.20
2013,05,09,02,01,10.20
2013,05,09,02,02,10.30
2013,05,09,02,03,10.30
2013,05,09,02,04,10.30
2013,05,09,02,05,10.30
2013,05,09,02,06,10.30
2013,05,09,02,07,10.30
2013,05,09,02,08,10.30
2013,05,09,02,09,10.30
2013,05,09,02,10,10.30
2013,05,09,02,11,10.30
2013,05,09,02,12,10.20
2013,05,09,02,13,10.20
2013,05,09,02,14,10.20
2013,05,09,02,15,10.20
2013,05,09,02,16,10.20
2013,05,09,02,17,10.20
2013,05,09,02,18,10.30
2013,05,09,02,19,10.30
2013,05,09,02,20,10.30
2013,05,09,02,21,10.30
2013,05,09,02,22,10.30
2013,05,09,02,23,10.30
2013,05,09,02,24,10.30
2013,05,09,02,25,10.30
2013,05,09,02,26,10.20
2013,05,09,02,27,10.20
2013,05,09,02,28,10.20
2013,05,09,02,29,10.20
2013,05,09,02,30,10.20
2013,05,09,02,31,10.20
2013,05,09,02,32,10.20
2013,05,09,02,33,10.20
2013,05,09,02,34,10.20
2013,05,09,02,35,10.20
2013,05,09,02,36,10.20
2013,05,09,02,37,10.20
2013,05,09,02,38,10.20
2013,05,09,02,39,10.20
2013,05,09,02,40,10.20
2013,05,09,02,41,10.20
2013,05,09,02,42,10.10
2013,05,09,02,43,10.10
2013,05,09,02,44,10.10
2013,05,09,02,45,10.10
2013,05,09,02,46,10.10
2013,05,09,02,47,10.10
2013,05,09,02,48,10.10
2013,05,09,02,49,10.10
2013,05,09,02,50,10.00
2013,05,09,02,51,10.00
2013,05,09,02,52,10.00
2013,05,09,02,53,10.00
2013,05,09,02,54,10.00
2013,05,09,02,55,10.00
2013,05,09,02,56,10.00
2013,05,09,02,57,10.10
2013,05,09,02,58,10.10
2013,05,09,02,59,10.10
2013,05,09,03,00,10.10
2013,05,09,03,01,10.10
2013,05,09,03,02,10.10
2013,05,09,03,03,10.10
2013,05,09,03,04,10.10
2013,05,09,03,05,10.00
2013,05,09,03,06,10.00
2013,05,09,03,07,10.00
2013,05,09,03,08,9.90
2013,05,09,03,09,9.90
2013,05,09,03,10,9.90
2013,05,09,03,11,9.90
2013,05,09,03,12,9.90
2013,05,09,03,13,9.90
2013,05,09,03,14,10.00
2013,05,09,03,15,10.00
2013,05,09,03,16,10.00
2013,05,09,03,17,10.00
2013,05,09,03,18,10.00
2013,05,09,03,19,10.00
2013,05,09,03,20,10.00
2013,05,09,03,21,10.00
2013,05,09,03,22,10.00
2013,05,09,03,23,10.00
2013,05,09,03,24,9.90
2013,05,09,03,25,9.90
2013,05,09,03,26,9.90
2013,05,09,03,27,9.90
2013,05,09,03,28,9.90
2013,05,09,03,29,9.90
2013,05,09,03,30,9.90
2013,05,09,03,31,9.90
2013,05,09,03,32,9.90
2013,05,09,03,33,9.90
2013,05,09,03,34,9.90
2013,05,09,03,35,9.90
2013,05,09,03,36,9.90
2013,05,09,03,37,9.90
2013,05,09,03,38,9.90
2013,05,09,03,39,9.90
2013,05,09,03,40,9.90
2013,05,09,03,41,9.90
2013,05,09,03,42,9.90
2013,05,09,03,43,9.90
2013,05,09,03,44,9.80
2013,05,09,03,45,9.80
2013,05,09,03,46,9.80
2013,05,09,03,47,9.80
2013,05,09,03,48,9.80
2013,05,09,03,49,9.80
2013,05,09,03,50,9.80
2013,05,09,03,51,9.80
2013,05,09,03,52,9.80
2013,05,09,03,53,9.80
2013,05,09,03,54,9.80
2013,05,09,03,55,9.80
2013,05,09,03,56,9.80
2013,05,09,03,57,9.80
2013,05,09,03,58,9.80
2013,05,09,03,59,9.80
2013,05,09,04,00,9.80
2013,05,09,04,01,9.80
2013,05,09,04,02,9.80
2013,05,09,04,03,9.80
2013,05,09,04,04,9.80
2013,05,09,04,05,9.80
2013,05,09,04,06,9.80
2013,05,09,04,07,9.70
2013,05,09,04,08,9.70
2013,05,09,04,09,9.70
2013,05,09,04,10,9.70
2013,05,09,04,11,9.70
2013,05,09,04,12,9.70
2013,05,09,04,13,9.70
2013,05,09,04,14,9.80
2013,05,09,04,15,9.80
2013,05,09,04,16,9.80
2013,05,09,04,17,9.80
2013,05,09,04,18,9.80
2013,05,09,04,19,9.80
2013,05,09,04,20,9.70
2013,05,09,04,21,9.70
2013,05,09,04,22,9.70
2013,05,09,04,23,9.70
2013,05,09,04,24,9.70
2013,05,09,04,25,9.60
2013,05,09,04,26,9.60
2013,05,09,04,27,9.60
2013,05,09,04,28,9.50
2013,05,09,04,29,9.50
2013,05,09,04,30,9.50
2013,05,09,04,31,9.50
2013,05,09,04,32,9.40
2013,05,09,04,33,9.40
2013,05,09,04,34,9.40
2013,05,09,04,35,9.40
2013,05,09,04,36,9.40
2013,05,09,04,37,9.40
2013,05,09,04,38,9.40
2013,05,09,04,39,9.40
2013,05,09,04,40,9.40
2013,05,09,04,41,9.40
2013,05,09,04,42,9.40
2013,05,09,04,43,9.40
2013,05,09,04,44,9.40
2013,05,09,04,45,9.40
2013,05,09,04,46,9.40
2013,05,09,04,47,9.40
2013,05,09,04,48,9.30
2013,05,09,04,49,9.30
2013,05,09,04,50,9.30
2013,05,09,04,51,9.30
2013,05,09,04,52,9.30
2013,05,09,04,53,9.30
2013,05,09,04,54,9.30
2013,05,09,04,55,9.30
2013,05,09,04,56,9.30
2013,05,09,04,57,9.30
2013,05,09,04,58,9.30
2013,05,09,04,59,9.30
2013,05,09,05,00,9.30
2013,05,09,05,01,9.20
2013,05,09,05,02,9.20
2013,05,09,05,03,9.20
2013,05,09,05,04,9.20
2013,05,09,05,05,9.10
2013,05,09,05,06,9.10
2013,05,09,05,07,9.10
2013,05,09,05,08,9.10
2013,05,09,05,09,9.10
2013,05,09,05,10,9.00
2013,05,09,05,11,9.00
2013,05,09,05,12,9.00
2013,05,09,05,13,9.00
2013,05,09,05,14,8.90
2013,05,09,05,15,9.00
2013,05,09,05,16,9.00
2013,05,09,05,17,9.00
2013,05,09,05,18,8.90
2013,05,09,05,19,8.90
2013,05,09,05,20,8.90
2013,05,09,05,21,8.90
2013,05,09,05,22,8.90
2013,05,09,05,23,8.90
2013,05,09,05,24,8.90
2013,05,09,05,25,8.90
2013,05,09,05,26,9.00
2013,05,09,05,27,9.00
2013,05,09,05,28,9.00
2013,05,09,05,29,9.10
2013,05,09,05,30,9.10
2013,05,09,05,31,9.10
2013,05,09,05,32,9.10
2013,05,09,05,33,9.10
2013,05,09,05,34,9.10
2013,05,09,05,35,9.10
2013,05,09,05,36,9.10
2013,05,09,05,37,9.10
2013,05,09,05,38,9.10
2013,05,09,05,39,9.10
2013,05,09,05,40,9.10
2013,05,09,05,41,9.10
2013,05,09,05,42,9.10
2013,05,09,05,43,9.00
2013,05,09,05,44,9.00
2013,05,09,05,45,9.00
2013,05,09,05,46,9.00
2013,05,09,05,47,9.00
2013,05,09,05,48,9.00
2013,05,09,05,49,9.00
2013,05,09,05,50,8.90
2013,05,09,05,51,8.90
2013,05,09,05,52,8.90
2013,05,09,05,53,8.90
2013,05,09,05,54,8.90
2013,05,09,05,55,8.90
2013,05,09,05,56,8.90
2013,05,09,05,57,8.90
2013,05,09,05,58,8.90
2013,05,09,05,59,9.00
2013,05,09,06,00,8.90
2013,05,09,06,01,8.90
2013,05,09,06,02,8.90
2013,05,09,06,03,8.90
2013,05,09,06,04,8.90
2013,05,09,06,05,8.90
2013,05,09,06,06,8.90
2013,05,09,06,07,8.90
2013,05,09,06,08,8.90
2013,05,09,06,09,9.00
2013,05,09,06,10,9.00
2013,05,09,06,11,9.00
2013,05,09,06,12,9.00
2013,05,09,06,13,9.00
2013,05,09,06,14,9.00
2013,05,09,06,15,9.10
2013,05,09,06,16,9.10
2013,05,09,06,17,9.20
2013,05,09,06,18,9.20
2013,05,09,06,19,9.20
2013,05,09,06,20,9.20
2013,05,09,06,21,9.20
2013,05,09,06,22,9.30
2013,05,09,06,23,9.30
2013,05,09,06,24,9.30
2013,05,09,06,25,9.30
2013,05,09,06,26,9.40
2013,05,09,06,27,9.40
2013,05,09,06,28,9.50
2013,05,09,06,29,9.50
2013,05,09,06,30,9.50
2013,05,09,06,31,9.50
2013,05,09,06,32,9.50
2013,05,09,06,33,9.50
2013,05,09,06,34,9.60
2013,05,09,06,35,9.60
2013,05,09,06,36,9.70
2013,05,09,06,37,9.70
2013,05,09,06,38,9.80
2013,05,09,06,39,9.80
2013,05,09,06,40,9.90
2013,05,09,06,41,9.90
2013,05,09,06,42,10.00
2013,05,09,06,43,10.10
2013,05,09,06,44,10.10
2013,05,09,06,45,10.10
2013,05,09,06,46,10.20
2013,05,09,06,47,10.20
2013,05,09,06,48,10.20
2013,05,09,06,49,10.20
2013,05,09,06,50,10.30
2013,05,09,06,51,10.30
2013,05,09,06,52,10.30
2013,05,09,06,53,10.30
2013,05,09,06,54,10.30
2013,05,09,06,55,10.40
2013,05,09,06,56,10.40
2013,05,09,06,57,10.40
2013,05,09,06,58,10.40
2013,05,09,06,59,10.50
2013,05,09,07,00,10.60
2013,05,09,07,01,10.60
2013,05,09,07,02,10.60
2013,05,09,07,03,10.60
2013,05,09,07,04,10.60
2013,05,09,07,05,10.60
2013,05,09,07,06,10.60
2013,05,09,07,07,10.60
2013,05,09,07,08,10.60
2013,05,09,07,09,10.60
2013,05,09,07,10,10.50
2013,05,09,07,11,10.50
2013,05,09,07,12,10.50
2013,05,09,07,13,10.50
2013,05,09,07,14,10.50
2013,05,09,07,15,10.60
2013,05,09,07,16,10.60
2013,05,09,07,17,10.70
2013,05,09,07,18,10.70
2013,05,09,07,19,10.70
2013,05,09,07,20,10.80
2013,05,09,07,21,10.80
2013,05,09,07,22,10.80
2013,05,09,07,23,10.80
2013,05,09,07,24,10.80
2013,05,09,07,25,10.80
2013,05,09,07,26,10.90
2013,05,09,07,27,10.90
2013,05,09,07,28,10.90
2013,05,09,07,29,10.90
2013,05,09,07,30,10.90
2013,05,09,07,31,10.90
2013,05,09,07,32,11.00
2013,05,09,07,33,11.00
2013,05,09,07,34,11.10
2013,05,09,07,35,11.10
2013,05,09,07,36,11.10
2013,05,09,07,37,11.10
2013,05,09,07,38,11.10
2013,05,09,07,39,11.00
2013,05,09,07,40,11.00
2013,05,09,07,41,10.90
2013,05,09,07,42,10.90
2013,05,09,07,43,10.90
2013,05,09,07,44,11.00
2013,05,09,07,45,11.00
2013,05,09,07,46,11.10
2013,05,09,07,47,11.20
2013,05,09,07,48,11.30
2013,05,09,07,49,11.40
2013,05,09,07,50,11.50
2013,05,09,07,51,11.50
2013,05,09,07,52,11.50
2013,05,09,07,53,11.50
2013,05,09,07,54,11.50
2013,05,09,07,55,11.50
2013,05,09,07,56,11.40
2013,05,09,07,57,11.40
2013,05,09,07,58,11.40
2013,05,09,07,59,11.30
2013,05,09,08,00,11.30
2013,05,09,08,01,11.30
2013,05,09,08,02,11.20
2013,05,09,08,03,11.20
2013,05,09,08,04,11.10
2013,05,09,08,05,11.10
2013,05,09,08,06,11.10
2013,05,09,08,07,11.00
2013,05,09,08,08,11.00
2013,05,09,08,09,11.00
2013,05,09,08,10,10.90
2013,05,09,08,11,10.90
2013,05,09,08,12,10.90
2013,05,09,08,13,10.90
2013,05,09,08,14,11.00
2013,05,09,08,15,11.00
2013,05,09,08,16,11.10
2013,05,09,08,17,11.10
2013,05,09,08,18,11.00
2013,05,09,08,19,11.00
2013,05,09,08,20,11.10
2013,05,09,08,21,11.00
2013,05,09,08,22,11.00
2013,05,09,08,23,10.90
2013,05,09,08,24,10.90
2013,05,09,08,25,10.90
2013,05,09,08,26,10.90
2013,05,09,08,27,11.00
2013,05,09,08,28,11.00
2013,05,09,08,29,11.00
2013,05,09,08,30,11.00
2013,05,09,08,31,11.00
2013,05,09,08,32,11.00
2013,05,09,08,33,11.10
2013,05,09,08,34,11.00
2013,05,09,08,35,11.10
2013,05,09,08,36,11.10
2013,05,09,08,37,11.10
2013,05,09,08,38,11.00
2013,05,09,08,39,11.00
2013,05,09,08,40,11.10
2013,05,09,08,41,11.00
2013,05,09,08,42,11.00
2013,05,09,08,43,11.00
2013,05,09,08,44,11.10
2013,05,09,08,45,11.10
2013,05,09,08,46,11.10
2013,05,09,08,47,11.10
2013,05,09,08,48,11.10
2013,05,09,08,49,11.10
2013,05,09,08,50,11.10
2013,05,09,08,51,11.10
2013,05,09,08,52,11.10
2013,05,09,08,53,11.00
2013,05,09,08,54,10.90
2013,05,09,08,55,10.90
2013,05,09,08,56,10.90
2013,05,09,08,57,10.80
2013,05,09,08,58,10.80
2013,05,09,08,59,10.80
2013,05,09,09,00,10.80
2013,05,09,09,01,10.70
2013,05,09,09,02,10.70
2013,05,09,09,03,10.60
2013,05,09,09,04,10.70
2013,05,09,09,05,10.80
2013,05,09,09,06,10.80
2013,05,09,09,07,10.90
2013,05,09,09,08,11.10
2013,05,09,09,09,11.10
2013,05,09,09,10,11.10
2013,05,09,09,11,11.10
2013,05,09,09,12,11.10
2013,05,09,09,13,11.10
2013,05,09,09,14,11.10
2013,05,09,09,15,11.10
2013,05,09,09,16,11.20
2013,05,09,09,17,11.20
2013,05,09,09,18,11.30
2013,05,09,09,19,11.30
2013,05,09,09,20,11.40
2013,05,09,09,21,11.40
2013,05,09,09,22,11.40
2013,05,09,09,23,11.50
2013,05,09,09,24,11.50
2013,05,09,09,25,11.50
2013,05,09,09,26,11.40
2013,05,09,09,27,11.50
2013,05,09,09,28,11.50
2013,05,09,09,29,11.50
2013,05,09,09,30,11.60
2013,05,09,09,31,11.60
2013,05,09,09,32,11.70
2013,05,09,09,33,11.70
2013,05,09,09,34,11.80
2013,05,09,09,35,11.80
2013,05,09,09,36,11.80
2013,05,09,09,37,11.80
2013,05,09,09,38,11.70
2013,05,09,09,39,11.80
2013,05,09,09,40,11.90
2013,05,09,09,41,12.10
2013,05,09,09,42,12.20
2013,05,09,09,43,12.30
2013,05,09,09,44,12.30
2013,05,09,09,45,12.30
2013,05,09,09,46,12.30
2013,05,09,09,47,12.20
2013,05,09,09,48,12.30
2013,05,09,09,49,12.30
2013,05,09,09,50,12.30
2013,05,09,09,51,12.30
2013,05,09,09,52,12.40
2013,05,09,09,53,12.50
2013,05,09,09,54,12.60
2013,05,09,09,55,12.70
2013,05,09,09,56,12.80
2013,05,09,09,57,12.80
2013,05,09,09,58,12.80
2013,05,09,09,59,12.80
2013,05,09,10,00,12.70
2013,05,09,10,01,12.70
2013,05,09,10,02,12.70
2013,05,09,10,03,12.70
2013,05,09,10,04,12.70
2013,05,09,10,05,12.60
2013,05,09,10,06,12.60
2013,05,09,10,07,12.70
2013,05,09,10,08,12.70
2013,05,09,10,09,12.70
2013,05,09,10,10,12.70
2013,05,09,10,11,12.70
2013,05,09,10,12,12.70
2013,05,09,10,13,12.70
2013,05,09,10,14,12.60
2013,05,09,10,15,12.60
2013,05,09,10,16,12.60
2013,05,09,10,17,12.50
2013,05,09,10,18,12.50
2013,05,09,10,19,12.60
2013,05,09,10,20,12.60
2013,05,09,10,21,12.60
2013,05,09,10,22,12.70
2013,05,09,10,23,12.80
2013,05,09,10,24,12.70
2013,05,09,10,25,12.70
2013,05,09,10,26,12.80
2013,05,09,10,27,12.80
2013,05,09,10,28,12.70
2013,05,09,10,29,12.70
2013,05,09,10,30,12.70
2013,05,09,10,31,12.60
2013,05,09,10,32,12.60
2013,05,09,10,33,12.60
2013,05,09,10,34,12.50
2013,05,09,10,35,12.40
2013,05,09,10,36,12.30
2013,05,09,10,37,12.30
2013,05,09,10,38,12.30
2013,05,09,10,39,12.30
2013,05,09,10,40,12.30
2013,05,09,10,41,12.30
2013,05,09,10,42,12.30
2013,05,09,10,43,12.20
2013,05,09,10,44,12.20
2013,05,09,10,45,12.30
2013,05,09,10,46,12.20
2013,05,09,10,47,12.20
2013,05,09,10,48,12.20
2013,05,09,10,49,12.20
2013,05,09,10,50,12.20
2013,05,09,10,51,12.20
2013,05,09,10,52,12.20
2013,05,09,10,53,12.20
2013,05,09,10,54,12.20
2013,05,09,10,55,12.30
2013,05,09,10,56,12.30
2013,05,09,10,57,12.30
2013,05,09,10,58,12.40
2013,05,09,10,59,12.40
2013,05,09,11,00,12.40
2013,05,09,11,01,12.50
2013,05,09,11,02,12.60
2013,05,09,11,03,12.50
2013,05,09,11,04,12.50
2013,05,09,11,05,12.50
2013,05,09,11,06,12.60
2013,05,09,11,07,12.70
2013,05,09,11,08,12.70
2013,05,09,11,09,12.70
2013,05,09,11,10,12.80
2013,05,09,11,11,12.80
2013,05,09,11,12,12.80
2013,05,09,11,13,12.80
2013,05,09,11,14,12.80
2013,05,09,11,15,12.80
2013,05,09,11,16,12.80
2013,05,09,11,17,12.80
2013,05,09,11,18,12.90
2013,05,09,11,19,12.90
2013,05,09,11,20,12.90
2013,05,09,11,21,13.00
2013,05,09,11,22,13.00
2013,05,09,11,23,13.00
2013,05,09,11,24,13.00
2013,05,09,11,25,13.00
2013,05,09,11,26,13.00
2013,05,09,11,27,13.00
2013,05,09,11,28,13.00
2013,05,09,11,29,13.10
2013,05,09,11,30,13.10
2013,05,09,11,31,13.10
2013,05,09,11,32,13.20
2013,05,09,11,33,13.30
2013,05,09,11,34,13.30
2013,05,09,11,35,13.50
2013,05,09,11,36,13.60
2013,05,09,11,37,13.70
2013,05,09,11,38,13.80
2013,05,09,11,39,14.00
2013,05,09,11,40,14.30
2013,05,09,11,41,14.40
2013,05,09,11,42,14.50
2013,05,09,11,43,14.60
2013,05,09,11,44,14.70
2013,05,09,11,45,15.00
2013,05,09,11,46,15.00
2013,05,09,11,47,15.00
2013,05,09,11,48,15.00
2013,05,09,11,49,15.00
2013,05,09,11,50,15.00
2013,05,09,11,51,15.00
2013,05,09,11,52,15.10
2013,05,09,11,53,15.30
2013,05,09,11,54,15.30
2013,05,09,11,55,15.30
2013,05,09,11,56,15.30
2013,05,09,11,57,15.20
2013,05,09,11,58,15.00
2013,05,09,11,59,14.90
2013,05,09,12,00,14.80
2013,05,09,12,01,14.70
2013,05,09,12,02,14.70
2013,05,09,12,03,14.60
2013,05,09,12,04,14.60
2013,05,09,12,05,14.70
2013,05,09,12,06,14.80
2013,05,09,12,07,14.80
2013,05,09,12,08,14.80
2013,05,09,12,09,14.80
2013,05,09,12,10,14.80
2013,05,09,12,11,14.80
2013,05,09,12,12,14.90
2013,05,09,12,13,15.00
2013,05,09,12,14,15.00
2013,05,09,12,15,15.00
2013,05,09,12,16,15.10
2013,05,09,12,17,15.30
2013,05,09,12,18,15.40
2013,05,09,12,19,15.50
2013,05,09,12,20,15.50
2013,05,09,12,21,15.60
2013,05,09,12,22,15.70
2013,05,09,12,23,15.70
2013,05,09,12,24,15.60
2013,05,09,12,25,15.40
2013,05,09,12,26,15.30
2013,05,09,12,27,15.30
2013,05,09,12,28,15.30
2013,05,09,12,29,15.30
2013,05,09,12,30,15.20
2013,05,09,12,31,15.00
2013,05,09,12,32,15.00
2013,05,09,12,33,15.00
2013,05,09,12,34,15.00
2013,05,09,12,35,15.00
2013,05,09,12,36,14.90
2013,05,09,12,37,14.80
2013,05,09,12,38,14.70
2013,05,09,12,39,14.70
2013,05,09,12,40,14.70
2013,05,09,12,41,14.80
2013,05,09,12,42,14.80
2013,05,09,12,43,15.00
2013,05,09,12,44,15.00
2013,05,09,12,45,15.00
2013,05,09,12,46,15.00
2013,05,09,12,47,15.10
2013,05,09,12,48,15.30
2013,05,09,12,49,15.30
2013,05,09,12,50,15.30
2013,05,09,12,51,15.30
2013,05,09,12,52,15.10
2013,05,09,12,53,15.00
2013,05,09,12,54,14.80
2013,05,09,12,55,14.70
2013,05,09,12,56,14.60
2013,05,09,12,57,14.60
2013,05,09,12,58,14.60
2013,05,09,12,59,14.70
2013,05,09,13,00,14.80
2013,05,09,13,01,14.90
2013,05,09,13,02,14.80
2013,05,09,13,03,14.70
2013,05,09,13,04,14.70
2013,05,09,13,05,14.60
2013,05,09,13,06,14.60
2013,05,09,13,07,14.50
2013,05,09,13,08,14.60
2013,05,09,13,09,14.80
2013,05,09,13,10,15.00
2013,05,09,13,11,15.10
2013,05,09,13,12,15.20
2013,05,09,13,13,15.30
2013,05,09,13,14,15.40
2013,05,09,13,15,15.50
2013,05,09,13,16,15.60
2013,05,09,13,17,15.70
2013,05,09,13,18,15.80
2013,05,09,13,19,15.80
2013,05,09,13,20,15.80
2013,05,09,13,21,15.90
2013,05,09,13,22,15.80
2013,05,09,13,23,15.80
2013,05,09,13,24,15.80
2013,05,09,13,25,15.80
2013,05,09,13,26,15.80
2013,05,09,13,27,15.70
2013,05,09,13,28,15.70
2013,05,09,13,29,15.70
2013,05,09,13,30,15.70
2013,05,09,13,31,15.60
2013,05,09,13,32,15.70
2013,05,09,13,33,15.80
2013,05,09,13,34,15.90
2013,05,09,13,35,16.00
2013,05,09,13,36,16.10
2013,05,09,13,37,16.10
2013,05,09,13,38,16.20
2013,05,09,13,39,16.20
2013,05,09,13,40,16.20
2013,05,09,13,41,16.20
2013,05,09,13,42,16.20
2013,05,09,13,43,16.20
2013,05,09,13,44,16.10
2013,05,09,13,45,16.00
2013,05,09,13,46,15.90
2013,05,09,13,47,15.80
2013,05,09,13,48,15.80
2013,05,09,13,49,15.80
2013,05,09,13,50,15.80
2013,05,09,13,51,15.80
2013,05,09,13,52,15.80
2013,05,09,13,53,15.80
2013,05,09,13,54,15.70
2013,05,09,13,55,15.70
2013,05,09,13,56,15.70
2013,05,09,13,57,15.70
2013,05,09,13,58,15.60
2013,05,09,13,59,15.60
2013,05,09,14,00,15.60
2013,05,09,14,01,15.50
2013,05,09,14,02,15.50
2013,05,09,14,03,15.50
2013,05,09,14,04,15.60
2013,05,09,14,05,15.70
2013,05,09,14,06,15.70
2013,05,09,14,07,15.70
2013,05,09,14,08,15.70
2013,05,09,14,09,15.70
2013,05,09,14,10,15.70
2013,05,09,14,11,15.70
2013,05,09,14,12,15.70
2013,05,09,14,13,15.80
2013,05,09,14,14,15.80
2013,05,09,14,15,15.90
2013,05,09,14,16,16.10
2013,05,09,14,17,16.20
2013,05,09,14,18,16.20
2013,05,09,14,19,16.20
2013,05,09,14,20,16.20
2013,05,09,14,21,16.20
2013,05,09,14,22,16.20
2013,05,09,14,23,16.20
2013,05,09,14,24,16.20
2013,05,09,14,25,16.20
2013,05,09,14,26,16.20
2013,05,09,14,27,16.10
2013,05,09,14,28,16.10
2013,05,09,14,29,16.20
2013,05,09,14,30,16.20
2013,05,09,14,31,16.30
2013,05,09,14,32,16.30
2013,05,09,14,33,16.30
2013,05,09,14,34,16.30
2013,05,09,14,35,16.30
2013,05,09,14,36,16.30
2013,05,09,14,37,16.30
2013,05,09,14,38,16.30
2013,05,09,14,39,16.30
2013,05,09,14,40,16.30
2013,05,09,14,41,16.20
2013,05,09,14,42,16.10
2013,05,09,14,43,16.00
2013,05,09,14,44,15.90
2013,05,09,14,45,15.80
2013,05,09,14,46,15.80
2013,05,09,14,47,15.80
2013,05,09,14,48,15.90
2013,05,09,14,49,15.90
2013,05,09,14,50,16.00
2013,05,09,14,51,16.00
2013,05,09,14,52,16.00
2013,05,09,14,53,16.00
2013,05,09,14,54,16.00
2013,05,09,14,55,16.00
2013,05,09,14,56,16.00
2013,05,09,14,57,16.10
2013,05,09,14,58,16.10
2013,05,09,14,59,16.10
2013,05,09,15,00,16.20
2013,05,09,15,01,16.30
2013,05,09,15,02,16.40
2013,05,09,15,03,16.40
2013,05,09,15,04,16.40
2013,05,09,15,05,16.40
2013,05,09,15,06,16.30
2013,05,09,15,07,16.30
2013,05,09,15,08,16.20
2013,05,09,15,09,16.10
2013,05,09,15,10,16.20
2013,05,09,15,11,16.20
2013,05,09,15,12,16.10
2013,05,09,15,13,16.20
2013,05,09,15,14,16.20
2013,05,09,15,15,16.10
2013,05,09,15,16,16.10
2013,05,09,15,17,16.00
2013,05,09,15,18,15.90
2013,05,09,15,19,15.90
2013,05,09,15,20,15.90
2013,05,09,15,21,15.90
2013,05,09,15,22,15.90
2013,05,09,15,23,16.00
2013,05,09,15,24,16.10
2013,05,09,15,25,16.10
2013,05,09,15,26,16.20
2013,05,09,15,27,16.20
2013,05,09,15,28,16.20
2013,05,09,15,29,16.20
2013,05,09,15,30,16.20
2013,05,09,15,31,16.20
2013,05,09,15,32,16.20
2013,05,09,15,33,16.20
2013,05,09,15,34,16.20
2013,05,09,15,35,16.20
2013,05,09,15,36,16.20
2013,05,09,15,37,16.10
2013,05,09,15,38,16.10
2013,05,09,15,39,15.90
2013,05,09,15,40,15.80
2013,05,09,15,41,15.70
2013,05,09,15,42,15.80
2013,05,09,15,43,15.80
2013,05,09,15,44,15.80
2013,05,09,15,45,15.90
2013,05,09,15,46,16.00
2013,05,09,15,47,16.10
2013,05,09,15,48,16.10
2013,05,09,15,49,16.20
2013,05,09,15,50,16.30
2013,05,09,15,51,16.40
2013,05,09,15,52,16.50
2013,05,09,15,53,16.60
2013,05,09,15,54,16.50
2013,05,09,15,55,16.30
2013,05,09,15,56,16.10
2013,05,09,15,57,16.00
2013,05,09,15,58,15.80
2013,05,09,15,59,15.80
2013,05,09,16,00,15.80
2013,05,09,16,01,15.90
2013,05,09,16,02,16.00
2013,05,09,16,03,16.00
2013,05,09,16,04,16.10
2013,05,09,16,05,16.10
2013,05,09,16,06,16.20
2013,05,09,16,07,16.20
2013,05,09,16,08,16.30
2013,05,09,16,09,16.30
2013,05,09,16,10,16.20
2013,05,09,16,11,16.20
2013,05,09,16,12,16.20
2013,05,09,16,13,16.10
2013,05,09,16,14,16.10
2013,05,09,16,15,16.10
2013,05,09,16,16,16.10
2013,05,09,16,17,16.20
2013,05,09,16,18,16.30
2013,05,09,16,19,16.40
2013,05,09,16,20,16.50
2013,05,09,16,21,16.60
2013,05,09,16,22,16.60
2013,05,09,16,23,16.60
2013,05,09,16,24,16.70
2013,05,09,16,25,16.70
2013,05,09,16,26,16.80
2013,05,09,16,27,16.80
2013,05,09,16,28,16.90
2013,05,09,16,29,16.80
2013,05,09,16,30,16.80
2013,05,09,16,31,16.80
2013,05,09,16,32,16.90
2013,05,09,16,33,17.00
2013,05,09,16,34,17.00
2013,05,09,16,35,17.10
2013,05,09,16,36,17.20
2013,05,09,16,37,17.20
2013,05,09,16,38,17.20
2013,05,09,16,39,17.30
2013,05,09,16,40,17.30
2013,05,09,16,41,17.30
2013,05,09,16,42,17.30
2013,05,09,16,43,17.40
2013,05,09,16,44,17.30
2013,05,09,16,45,17.20
2013,05,09,16,46,17.20
2013,05,09,16,47,17.20
2013,05,09,16,48,17.10
2013,05,09,16,49,17.10
2013,05,09,16,50,17.10
2013,05,09,16,51,17.10
2013,05,09,16,52,17.20
2013,05,09,16,53,17.20
2013,05,09,16,54,17.10
2013,05,09,16,55,17.10
2013,05,09,16,56,17.10
2013,05,09,16,57,17.10
2013,05,09,16,58,17.10
2013,05,09,16,59,17.20
2013,05,09,17,00,17.20
2013,05,09,17,01,17.20
2013,05,09,17,02,17.20
2013,05,09,17,03,17.20
2013,05,09,17,04,17.20
2013,05,09,17,05,17.30
2013,05,09,17,06,17.30
2013,05,09,17,07,17.30
2013,05,09,17,08,17.20
2013,05,09,17,09,17.20
2013,05,09,17,10,17.10
2013,05,09,17,11,17.00
2013,05,09,17,12,16.90
2013,05,09,17,13,16.80
2013,05,09,17,14,16.80
2013,05,09,17,15,16.70
2013,05,09,17,16,16.70
2013,05,09,17,17,16.60
2013,05,09,17,18,16.50
2013,05,09,17,19,16.40
2013,05,09,17,20,16.40
2013,05,09,17,21,16.40
2013,05,09,17,22,16.40
2013,05,09,17,23,16.50
2013,05,09,17,24,16.60
2013,05,09,17,25,16.70
2013,05,09,17,26,16.80
2013,05,09,17,27,16.80
2013,05,09,17,28,16.90